{"data":{"norad_id":66351,"intl_designator":"2025-254D","name":"STARLINK-35828","alt_names":[],"object_type":"PAYLOAD","status":"ACTIVE","operator":null,"country":"US","launch_date":"2025-11-06","launch_site_code":"AFWTR","launch_vehicle":null,"mission":null,"orbit_class":"UNKNOWN","rcs_meters":null,"size_class":null,"mass_kg":null,"dimensions":null,"purposes":["comms"],"wikipedia_slug":null,"has_3d_model":false,"image_url":null,"decayed_at":null,"tle_current":{"epoch":"2026-05-24T17:38:35.457504Z","epoch_age_seconds":101969,"freshness":"FRESH","line1":"1 66351U 25254D   26144.73513261  .00014025  00000+0  46267-3 0  9993","line2":"2 66351  53.1592 238.8720 0000913  71.8964 288.2137 15.31713382 30622","mean_motion":15.31713382,"eccentricity":9.13e-5,"inclination_deg":53.1592,"raan_deg":238.872,"arg_perigee_deg":71.8964,"mean_anomaly_deg":288.2137,"bstar":0.00046267,"rev_number":3062,"period_min":94.012366603454,"perigee_km":470.07480564278,"apogee_km":471.32540329806,"semimajor_km":6848.8371044704,"source":"CELESTRAK","updated_at":"2026-05-25T13:38:21.173790Z"}}}